Location: Ambatotampy
(18.8181°S, 47.6186°E)
Time: 04:29:23
(UTC+00:00)

Daily predictions for brighter satellites

Satellite Brightness Start Highest point End
(mag) Time Altitude Azimuth Time Altitude Azimuth Time Altitude Azimuth
COSMOS 2428 3.6 00:02:12 10° SSW 00:05:44 39° SSW 00:05:44 39° SSW
Cosmos 2061 Rocket 3.8 00:04:54 10° S 00:11:03 84° WSW 00:11:03 84° WSW
X-37B 3.6 00:18:26 17° ESE 00:18:26 17° ESE 00:19:20 10° ESE
Cosmos 2297 Rocket 3.7 00:18:50 23° SW 00:18:50 23° SW 00:21:47 10° SSW
Meteor 1-15 Rocket 4.4 00:11:46 10° S 00:16:23 59° SSW 00:16:23 59° SSW
Timation 1 Rocket 4.2 00:19:05 72° NNE 00:19:41 81° ENE 00:25:40 10° SSE
SeaSat 1 2.6 00:15:45 10° SSE 00:20:07 67° S 00:20:07 67° S
ATLAS 2AS CENTAUR R/B 2.6 00:21:24 54° WSW 00:21:24 54° WSW 00:27:22 10° SSE
GPS 2-15 Rocket1 4.1 00:26:59 39° NE 00:26:59 39° NE 00:30:14 10° ENE
GPS 2-14 Rocket1 3.9 00:28:17 37° E 00:28:17 37° E 00:30:46 10° E
SL-24 DEB 4.2 00:22:54 10° S 00:27:39 78° E 00:27:41 78° ENE
ATLAS 5 CENTAUR R/B 2.9 00:25:51 43° N 00:28:29 72° ENE 00:35:43 10° SSE
Cosmos 2082 3.7 00:29:55 58° WSW 00:29:55 58° WSW 00:35:20 10° S
ISS -1.5 00:32:14 21° ENE 00:32:14 21° ENE 00:34:18 10° ESE
Cosmos 1864 Rocket 4.5 00:26:35 10° SSW 00:32:44 60° W 00:33:20 57° WNW
SWIFT 2.5 00:39:39 66° ENE 00:39:39 66° ENE 00:43:25 10° E
Mugunghwa Rocket 4.2 00:38:17 44° W 00:40:28 71° SSW 00:47:38 10° ESE
Ariane H10+ 4.3 00:38:59 31° NNW 00:43:44 45° NNE 01:11:50 10° E
Cosmos 968 Rocket 3.5 00:42:45 41° N 00:44:35 78° ENE 00:49:53 10° SSE
BREEZE-M DEB (TANK) 3.1 00:45:11 58° NNW 00:45:56 80° NE 00:49:23 10° SE
Cosmos 2233 Rocket 3.9 00:39:44 10° S 00:46:06 80° W 00:51:03 17° N
ATLAS CENTAUR R/B 2.5 00:43:16 10° S 00:47:27 45° ESE 00:51:20 10° NE
Meteor 1-31 Rocket 4.3 00:44:43 10° NE 00:48:21 37° ESE 00:52:01 10° S
Cosmos 2263 Rocket 3.0 00:45:30 17° N 00:49:26 46° ENE 00:54:45 10° SSE
Palapa 6 Rocket 3.6 00:49:22 35° WSW 00:51:17 63° S 00:56:55 10° E
CENTAUR R/B 3.8 00:46:57 10° S 00:51:37 32° ESE 00:56:10 10° NE
Maqsat-H 4.3 00:50:53 16° N 00:54:11 22° NE 01:06:24 10° ENE
Cosmos 1356 Rocket 3.5 00:50:13 10° S 00:54:13 71° E 00:57:00 19° NNE
Cosmos 1707 2.8 00:54:59 56° WSW 00:54:59 56° WSW 00:58:39 10° S
Cosmos 1486 Rocket 3.9 00:54:26 35° NNW 00:56:43 84° WSW 01:02:03 10° SSE
In-Cosmos 22 4.2 00:55:25 19° N 00:59:24 82° E 01:05:03 10° S
CZ-4C R/B 4.0 00:57:15 25° W 00:59:56 30° WSW 01:06:36 10° S
FALCON 9 DEB 3.0 01:01:36 65° NNE 01:01:36 65° NNE 01:04:20 10° NE
FALCON 9 DEB 3.0 01:00:27 24° SSW 01:02:15 78° SE 01:05:26 10° NE
USA 238 DEB 3.9 00:56:33 10° SSW 01:03:09 69° ESE 01:09:35 10° NNE
USA 238 3.9 00:56:40 10° SSW 01:03:17 69° ESE 01:09:42 10° NNE
Cosmos 1763 Rocket 3.8 01:00:35 10° SSW 01:05:20 40° W 01:06:55 32° NW
Cosmos 1726 3.1 01:02:43 10° S 01:06:17 46° E 01:09:49 10° NNE
Hubble Space Telescope 0.9 01:05:30 41° W 01:06:45 66° SSW 01:10:52 10° ESE
NOSS 0 Rocket 4.2 01:01:38 10° SW 01:07:33 45° WNW 01:13:25 10° N
SL-08 R/B 3.8 01:03:56 10° S 01:08:32 42° WSW 01:10:04 32° WNW
FENGYUN 3A 3.9 01:05:21 22° NNW 01:08:37 46° W 01:13:51 10° SSW
BREEZE M DEB (TANK) 2.7 01:08:00 44° W 01:08:40 56° NW 01:14:19 10° NNE
Intercosmos 25 4.1 01:09:24 33° W 01:09:38 33° WSW 01:14:00 10° SSW
Cosmos 841 Rocket 3.4 01:06:03 10° SSW 01:11:16 90° E 01:16:25 10° NNE
ADEOS 3.5 01:07:18 10° N 01:12:29 68° WNW 01:17:43 10° SSW
ALOS 2.7 01:12:06 28° NW 01:13:49 39° W 01:18:12 10° SSW
Okean 1 Rocket 3.8 01:10:17 10° SSW 01:14:16 32° W 01:14:57 30° WNW
Cosmos 1626 4.5 01:11:29 10° NE 01:14:29 24° E 01:17:31 10° SE
SL-16 R/B 3.7 01:11:00 10° S 01:16:15 38° ESE 01:21:28 10° NE
Cosmos 1025 Rocket 2.9 01:15:12 14° N 01:18:55 83° W 01:23:18 10° S
Cosmos 1464 Rocket 4.3 01:16:12 10° S 01:22:25 68° E 01:28:29 10° NNE
Cosmos 921 Rocket 3.8 01:18:41 10° SW 01:22:39 31° W 01:24:47 21° NW
COSMOS 2455 4.1 01:17:45 10° N 01:23:15 39° ENE 01:28:47 10° SE
Cosmos 1570 Rocket 3.9 01:18:07 10° SSW 01:23:25 85° WNW 01:28:37 10° N
Cosmos 1758 3.2 01:19:40 10° S 01:23:41 83° W 01:27:40 10° N
Cosmos 1503 Rocket 3.9 01:20:10 12° NNW 01:24:56 83° WSW 01:30:09 10° SSE
deb Chang Zheng 4 3.6 01:20:59 10° NNE 01:25:11 80° ESE 01:29:28 10° S
Star 63D 3.0 01:25:22 34° W 01:26:10 60° NNW 01:29:05 10° ENE
Cosmos 1484 Rocket 3.8 01:26:49 24° WNW 01:27:20 25° W 01:30:33 10° SW
SWAS 4.3 01:23:15 10° SSW 01:27:32 78° WNW 01:31:46 10° NNE
Cosmos 2237 Rocket 2.6 01:23:39 10° SW 01:28:53 40° WNW 01:34:07 10° N
Cosmos 1470 3.2 01:25:39 10° SSW 01:29:22 40° W 01:32:53 11° NNW
KORONAS-FOTON 3.7 01:26:50 12° NNW 01:30:14 66° W 01:34:02 10° S
Meteor PRIRODA 4.3 01:27:58 10° NNE 01:31:33 57° ESE 01:35:11 10° S
Meteosat 1 Rocket2 3.7 01:30:27 16° WSW 01:32:58 37° SSW 01:36:45 10° SE
Cosmos 2227 4.3 01:29:47 13° NNW 01:34:56 61° WSW 01:40:37 10° S
GPS 2-12 Rocket1 3.3 01:33:33 19° WNW 01:36:52 64° NNE 01:41:38 10° E
FALCON 9 DEB 3.8 01:34:15 10° WSW 01:37:06 29° WNW 01:39:56 10° N
SL-14 R/B 4.5 01:38:06 10° NNE 01:41:58 46° E 01:45:53 10° SSE
Cosmos 2208 Rocket 4.0 01:37:30 10° SSW 01:42:52 67° WNW 01:48:15 10° N
SJ-12 4.2 01:39:50 10° N 01:43:45 44° W 01:47:43 10° SSW
CZ-4C R/B 3.1 01:41:22 10° SSE 01:45:00 84° ENE 01:48:31 10° N
Cosmos 1544 Rocket 3.7 01:40:48 10° S 01:45:13 82° E 01:49:34 10° N
Lacrosse 4 Rocket 1.7 01:41:29 10° SW 01:45:17 40° WNW 01:49:06 10° N
RESURS DK-1 4.1 01:44:08 13° W 01:45:54 16° WSW 01:48:32 10° SSW
ADEOS Rocket 4.1 01:41:14 10° S 01:48:05 39° WSW 01:55:09 10° NW
Cosmos 1814 Rocket 4.2 01:43:05 10° SSW 01:48:11 50° W 01:53:11 10° N
TSX-5 3.5 01:47:36 10° NNW 01:50:56 50° WSW 01:54:00 10° S
X-37B 3.1 01:51:45 10° WSW 01:53:00 12° SW 01:54:15 10° SSW
Cosmos 1818 4.4 01:50:38 10° N 01:55:51 50° ENE 02:01:03 10° SE
Cosmos 2034 Rocket 4.1 01:53:08 10° S 01:59:29 82° W 02:05:49 10° N
H-2A R/B 2.3 01:55:34 10° SSE 01:59:50 78° ENE 02:04:11 10° N
Orbus 7S 3.4 01:55:14 10° WSW 01:59:55 80° NNW 02:02:28 10° ENE
Cosmos 1400 Rocket 3.2 01:57:55 10° S 02:01:53 70° E 02:05:51 10° NNE
SJ 16-02 4.1 01:58:49 10° NE 02:01:58 19° E 02:05:07 10° SE
NOSS 3-2 (A) 4.2 01:58:39 10° WSW 02:02:54 23° WNW 02:07:01 10° NNW
ERBS 2.4 02:03:54 10° SW 02:07:12 52° WNW 02:10:27 10° NNE
CZ-4B R/B 3.6 02:03:39 10° NNW 02:07:12 33° W 02:10:59 10° SW
GPS 2-14 Rocket1 2.9 02:03:55 10° W 02:07:46 65° S 02:11:34 10° E
ISS -1.6 02:06:10 10° W 02:08:16 15° SW 02:10:22 10° S
GPS 2-15 Rocket1 4.5 02:05:32 10° WNW 02:09:29 24° NNW 02:13:28 10° NE
NOSS 3-2 (C) 3.6 02:07:17 10° SW 02:12:27 38° WNW 02:17:21 10° N
